Regional Weather Roundup
Issued by NWS

Home | Current Version | Previous Version | Text Only | Print | Product List | Glossary Off
Versions: 1 2 3 4 5 6 7 8 9 10 11 12 13 14 15 16 17 18 19 20 21 22 23 24 25 26 27 28 29 30 31 32 33 34 35 36 37 38 39 40 41 42 43 44 45 46 47 48 49 50

000
ASUS43 KLMK 191710
RWRKY
KENTUCKY REGIONAL WEATHER ROUNDUP
NATIONAL WEATHER SERVICE LOUISVILLE KY
1200 PM EST SUN FEB 19 2017

NOTE "FAIR" INDICATES FEW OR NO CLOUDS BELOW 12,000 FEET
WITH NO SIGNIFICANT WEATHER AND/OR OBSTRUCTIONS TO VISIBILITY.

KYZ001>023-026-027-061>063-070>075-191800-
WESTERN AND SOUTH CENTRAL KENTUCKY

CITY           SKY/WX    TMP DP  RH WIND       PRES   REMARKS
PADUCAH        CLOUDY    52  50  93 CALM      30.11S FOG
HENDERSON      CLOUDY    52  48  87 CALM      30.10F
OWENSBORO      CLOUDY    51  49  92 S3        30.13S FOG
HOPKINSVILLE   CLOUDY    59  55  88 CALM      30.11S
BOWLING GREEN  CLOUDY    58  52  80 SE3       30.13F
GLASGOW        CLOUDY    58  49  71 SW5       30.13S
$$

KYZ024-025-028>034-038-045-046-053-191800-
NORTH CENTRAL KENTUCKY

CITY           SKY/WX    TMP DP  RH WIND       PRES   REMARKS
LOUISVILLE/SDF CLOUDY    56  49  77 W5        30.11S
LOUISVILLE/LOU CLOUDY    55  49  80 VRB3      30.12S
FORT KNOX      CLOUDY    54  52  94 CALM      30.10S
$$

KYZ035>037-039>044-047>052-055>060-089>105-191800-
NORTHEAST KENTUCKY

CITY           SKY/WX    TMP DP  RH WIND       PRES   REMARKS
LEXINGTON      CLOUDY    52  48  86 W7        30.13S
COVINGTON      CLOUDY    50  47  89 SW5       30.11R
FRANKFORT      CLOUDY    53  47  79 SW6       30.11S
$$

KYZ054-064>069-076>088-106>120-191800-
SOUTHEAST KENTUCKY

CITY           SKY/WX    TMP DP  RH WIND       PRES   REMARKS
JACKSON        CLOUDY    51  45  79 VRB5      30.14R
LONDON         CLOUDY    54  45  71 W6        30.15R
SOMERSET       MOSUNNY   54  45  71 W3        30.15F
MIDDLESBORO    PTSUNNY   55  48  77 CALM      30.15S
MONTICELLO     MOSUNNY   59  49  69 W12       30.16S
$$




USA.gov is the U.S. government's official web portal to all federal, state and local government web resources and services.